This is the latest recevied weather packets stored in our database for station/object OM8AKX-4. If no packets are shown the sender has not sent any weather packets the latest 10 day(s).
| Time | Temp. | Humidity | Pressure | Rain* | Wind** | Luminosity | Snow |
|---|---|---|---|---|---|---|---|
| 1777684320 | 3.89° C | 100% | 883.1 hPa | - | - | - | - |
| 1777683420 | 4.44° C | 100% | 883.2 hPa | - | - | - | - |
| 1777682519 | 4.44° C | 100% | 883.4 hPa | - | - | - | - |
| 1777681619 | 4.44° C | 100% | 883.2 hPa | - | - | - | - |
| 1777680719 | 4.44° C | 98% | 883.3 hPa | - | - | - | - |
| 1777679819 | 4.44° C | 95% | 883.5 hPa | - | - | - | - |
| 1777678919 | 5° C | 95% | 883.5 hPa | - | - | - | - |
| 1777678019 | 5° C | 92% | 883.4 hPa | - | - | - | - |
| 1777677119 | 5° C | 91% | 883.5 hPa | - | - | - | - |
| 1777676219 | 5° C | 91% | 883.6 hPa | - | - | - | - |
| 1777675319 | 4.44° C | 90% | 883.5 hPa | - | - | - | - |
| 1777674420 | 5° C | 88% | 883.4 hPa | - | - | - | - |
| 1777673519 | 5° C | 87% | 883.6 hPa | - | - | - | - |
| 1777672619 | 5° C | 87% | 883.6 hPa | - | - | - | - |
| 1777671718 | 5° C | 89% | 883.5 hPa | - | - | - | - |
| 1777670819 | 4.44° C | 91% | 883.5 hPa | - | - | - | - |
| 1777669918 | 4.44° C | 89% | 883.4 hPa | - | - | - | - |
| 1777669018 | 4.44° C | 86% | 883.4 hPa | - | - | - | - |
| 1777668118 | 5° C | 83% | 883.4 hPa | - | - | - | - |
| 1777667218 | 5° C | 80% | 883.5 hPa | - | - | - | - |
| 1777666318 | 5° C | 79% | 883.5 hPa | - | - | - | - |
| 1777665418 | 5° C | 80% | 883.5 hPa | - | - | - | - |
| 1777664518 | 5° C | 77% | 883.7 hPa | - | - | - | - |
| 1777663618 | 5° C | 76% | 883.6 hPa | - | - | - | - |
| 1777662719 | 5° C | 74% | 883.7 hPa | - | - | - | - |
* Rain since midnight (hover to see other rain measurements)
** Current wind speed in m/s (hover to see current wind gust speed)